Temperature
15 16 16 16 16 16 16 15 15 15 15 16 16 15 15 15 15 15 15 15 15 15 15 15 15 15 15 15 15 15 15 15 15 15 15 15 15 15 15 14 14 14 14
16 16 16 16 16 16 15 15 15 15 15 15 15 15 15 15 15 15 15 15 15 15 15 15 15 15 15 15 15 15 15 15 15 14 14 14 14 14 14 14 14 14 15
15 15 15 16 16 15 15 15 15 15 15 15 15 15 15 15 15 15 15 15 15 15 15 15 15 15 15 15 15 15 15 15 14 14 14 14 14 14 14 14 14 14 14
15 15 15 15 15 15 15 15 15 15 15 15 15 15 15 15 15 15 15 15 15 15 15 15 15 15 15 14 15 15 14 14 14 14 14 14 14 14 14 14 14 14 14
14 15 15 15 15 15 15 15 15 15 15 15 15 15 15 15 15 15 15 15 15 14 14 14 14 14 14 14 14 14 14 14 13 13 13 14 14 14 14 14 14 14 14
14 14 14 14 14 15 14 14 15 15 15 15 15 15 14 15 15 15 15 14 14 14 14 14 14 14 14 14 14 14 14 13 13 13 13 13 13 13 14 14 14 14 14
14 14 14 14 14 14 14 14 14 14 14 14 14 14 14 14 14 14 14 14 14 14 14 14 14 14 14 14 14 14 14 13 13 13 13 13 13 13 13 13 13 13 14
13 13 14 14 14 14 14 14 14 14 14 14 14 14 14 14 14 14 14 14 14 14 14 14 14 14 14 14 14 14 13 13 13 13 13 13 13 13 13 13 13 13 13
13 13 13 13 13 14 14 14 14 14 14 14 14 14 14 14 14 14 14 14 14 14 14 14 14 14 14 14 14 13 13 13 13 12 13 13 13 13 13 13 13 13 13
12 12 13 13 13 13 13 13 13 14 14 14 14 14 14 14 14 14 14 14 14 14 14 14 14 14 13 13 13 13 13 13 12 12 12 12 12 12 13 13 12 12 12
12 12 12 12 13 13 13 13 13 13 13 13 13 13 13 13 13 13 13 13 13 13 13 13 13 13 13 13 13 13 13 12 12 12 12 12 12 12 12 12 12 12 12
12 12 12 12 12 12 13 13 13 13 13 13 13 13 13 13 13 13 13 13 13 13 13 13 13 13 13 12 12 12 12 12 12 12 12 12 12 12 12 12 12 12 12
11 11 11 11 11 12 12 12 12 12 12 12 12 12 12 12 12 13 13 13 13 13 13 13 12 12 12 12 12 12 12 12 12 12 12 12 12 12 12 12 12 12 12
11 11 11 11 11 11 12 12 12 12 12 12 12 12 12 12 12 12 12 12 12 12 12 12 12 12 12 12 12 12 12 12 12 12 12 12 12 11 11 11 11 11 11
11 11 11 11 11 11 11 11 11 12 12 12 12 12 12 12 12 12 12 12 12 12 12 11 11 11 11 11 11 11 11 11 11 11 11 11 11 11 11 11 11 11 11
10 10 10 11 11 11 11 11 11 11 11 11 11 11 11 11 12 11 11 11 11 11 11 11 11 11 11 11 11 11 11 11 11 11 11 11 11 11 11 11 11 10 10
10 10 10 10 10 11 11 11 11 11 11 11 11 11 11 11 11 11 11 11 11 11 11 11 11 11 11 11 11 11 11 11 10 11 11 11 11 11 11 10 10 10 10
10 10 10 10 10 10 10 10 11 10 11 11 11 11 11 11 11 11 11 11 11 11 11 11 10 10 10 10 10 10 10 10 10 10 10 10 10 10 10 10 10 10 9
10 10 10 10 10 10 10 10 10 10 10 10 10 10 11 11 11 10 10 10 10 10 10 10 10 10 10 10 10 10 10 10 10 10 10 10 10 10 10 10 10 9 9
10 10 9 9 9 10 10 10 10 10 10 10 10 10 10 10 10 10 10 10 10 10 10 10 10 10 10 10 10 9 9 10 10 10 10 9 10 10 10 9 9 9 9
9 9 9 9 9 9 9 9 10 9 9 10 10 10 10 10 10 10 10 10 10 10 10 9 9 9 9 9 9 9 9 9 9 9 9 9 9 9 9 9 9 9 9
9 9 9 9 9 9 9 9 9 9 9 9 9 9 9 9 9 9 9 9 9 9 9 9 9 9 9 9 9 8 8 8 9 9 9 9 9 9 9 9 9 9 9
9 9 9 9 9 8 9 9 9 8 8 9 9 9 9 9 9 9 9 9 9 9 9 9 9 9 9 9 8 8 8 8 8 8 8 8 8 8 8 8 8 8 8
9 9 8 8 8 8 8 8 8 8 8 8 8 9 9 9 9 9 9 9 9 9 9 9 9 8 8 8 8 8 8 8 8 8 8 8 8 8 8 8 8 8 8
8 8 8 8 8 8 8 8 8 8 8 8 8 8 8 8 9 9 9 8 8 8 8 8 8 8 8 8 8 8 8 8 8 8 7 7 7 8 8 8 8 8 7
8 8 8 8 8 8 8 8 8 8 8 8 8 8 8 8 8 8 8 8 8 8 8 8 8 8 8 8 8 8 8 7 7 7 7 7 7 7 7 7 7 7 7
Wind_Speed
4 7 8 6 6 7 7 7 8 8 8 9 9 9 9 9 9 9 9 9 8 9 9 9 10 10 10 11 11 11 12 11 11 11 11 11 11 11 11 11 11 11 12
5 6 8 7 6 6 6 7 7 8 8 8 9 9 8 8 8 8 8 8 8 8 8 9 9 10 10 11 11 10 10 8 7 7 9 10 10 11 11 12 12 10 11
5 7 7 6 6 6 6 7 7 8 8 8 8 8 8 8 8 8 8 8 8 8 8 9 10 10 10 11 10 9 7 5 4 3 4 7 9 10 10 11 11 10 10
5 6 6 5 5 6 7 7 7 8 8 8 8 8 8 8 8 8 8 8 8 8 9 9 10 10 10 10 9 7 6 3 3 3 3 9 9 10 10 10 10 10 10
4 6 6 6 5 5 7 7 8 8 8 8 8 8 8 7 7 7 7 7 7 8 8 9 9 10 9 9 8 6 4 4 4 4 6 12 11 11 11 10 10 10 10
4 5 6 6 5 5 6 7 8 8 8 8 8 8 7 7 7 7 7 7 7 8 8 9 9 9 8 8 7 5 4 5 5 4 9 12 11 10 11 10 10 10 9
3 4 5 6 5 5 6 7 7 7 7 8 8 7 7 7 7 7 7 7 7 8 8 8 8 8 8 7 6 4 4 6 5 7 11 11 10 10 9 9 9 9 9
3 3 4 5 5 5 6 7 7 7 7 7 7 7 7 6 6 7 7 7 7 8 8 8 8 8 7 6 5 4 4 5 4 7 10 11 10 9 8 8 8 9 9
3 3 3 4 5 6 6 7 7 7 7 7 6 6 6 6 7 7 7 7 7 8 7 8 7 7 6 5 3 2 4 5 6 7 9 9 9 9 9 9 9 10 10
2 2 2 3 3 4 6 7 7 7 8 7 7 7 7 8 8 7 7 7 7 7 8 7 7 6 5 4 3 1 3 4 5 7 9 9 9 9 9 9 10 11 11
2 2 2 1 3 3 5 6 7 8 8 8 7 8 7 7 7 6 7 7 7 7 7 7 6 5 5 4 2 1 2 2 6 8 9 9 8 8 9 9 10 11 11
1 1 1 1 1 3 4 5 6 6 7 7 7 7 5 5 7 6 7 7 7 7 7 6 5 4 4 3 2 1 2 4 6 8 9 10 8 8 9 9 10 10 11
1 0 1 2 2 2 2 3 3 5 4 5 6 5 6 6 6 6 6 6 6 6 5 4 4 3 3 4 3 3 3 5 7 9 9 10 8 8 9 9 9 10 10
1 0 1 2 2 2 3 2 3 3 3 3 4 5 5 3 3 3 4 4 4 4 3 3 3 3 4 4 4 4 5 5 8 9 9 10 9 8 8 8 8 9 9
1 1 1 2 1 1 2 2 3 3 3 4 4 4 5 3 2 2 3 3 3 3 2 2 2 3 3 3 4 4 4 6 8 9 9 10 9 8 8 8 8 8 8
1 1 1 1 2 2 2 2 2 3 3 4 3 3 5 4 3 2 2 2 3 3 2 2 3 3 3 3 3 4 5 6 7 9 9 9 9 8 8 7 7 7 7
2 2 2 2 2 3 3 2 3 4 4 3 3 4 4 5 4 3 2 2 2 3 3 3 3 3 2 2 2 4 4 5 6 7 8 8 8 7 7 6 6 6 6
2 3 2 2 2 3 3 3 3 4 3 3 3 4 5 5 5 4 2 2 3 3 2 2 1 2 2 2 2 2 2 3 5 5 6 7 7 7 6 6 6 5 5
3 3 2 2 2 3 3 3 3 3 2 3 3 3 4 5 5 4 3 2 3 2 1 1 1 2 2 2 1 1 1 1 2 4 5 6 6 7 6 5 5 5 4
3 3 3 3 3 3 3 3 3 3 2 3 3 3 4 4 4 4 3 2 3 2 2 1 2 2 2 1 1 1 1 1 1 2 3 4 5 5 5 5 4 3 3
3 4 4 3 3 3 2 2 2 2 2 2 2 3 3 4 4 3 2 2 2 2 2 2 2 2 2 2 2 1 1 0 1 2 2 3 3 4 4 4 4 3 2
3 3 4 4 3 3 2 2 2 2 2 2 2 3 3 3 2 2 2 2 1 2 2 2 2 1 1 1 1 1 0 1 1 2 2 2 3 3 3 3 3 3 2
3 3 3 3 3 3 4 3 3 2 2 1 2 1 1 2 1 2 2 2 1 2 2 2 2 2 2 1 1 2 2 2 0 1 2 2 3 2 2 2 3 3 2
3 4 3 3 3 3 4 4 4 2 2 1 2 1 1 2 1 2 2 2 2 1 2 2 2 1 2 2 1 0 1 1 1 1 1 2 3 3 3 2 3 3 3
3 4 4 4 3 3 3 4 4 3 2 1 2 2 1 1 2 2 2 2 2 2 2 2 1 1 1 2 2 1 1 1 1 2 2 2 2 2 3 3 3 3 3
3 4 4 4 3 2 3 3 3 3 3 2 2 2 2 1 1 2 2 2 2 2 2 2 2 2 2 2 2 1 1 1 1 1 2 2 2 2 2 2 3 3 4
Wind_Direction
84 109 124 122 125 125 127 130 126 121 119 121 120 116 111 106 102 100 98 93 94 94 92 90 87 85 83 83 84 82 80 78 80 81 77 74 72 68 63 61 64 69 68
95 107 126 124 128 133 133 134 132 129 124 125 124 121 116 109 105 102 102 98 97 97 96 97 94 91 89 87 85 84 82 82 83 88 87 79 76 71 65 63 65 68 71
91 103 118 123 124 133 137 138 136 135 131 128 127 124 119 116 112 107 102 99 97 96 99 102 97 93 91 88 85 84 83 82 77 80 89 93 86 74 71 71 69 71 75
81 106 112 112 128 135 138 142 141 140 134 130 127 127 126 123 118 112 107 103 99 96 99 99 97 94 91 88 84 81 76 55 6 10 71 93 87 80 80 76 71 72 72
69 101 111 107 125 134 141 149 151 144 137 132 129 127 127 125 122 118 112 106 104 102 103 102 100 95 91 87 84 78 57 9 351 5 71 82 81 83 82 77 73 71 69
58 97 113 117 121 134 142 149 152 147 140 137 134 129 127 126 125 122 113 108 107 107 104 103 102 97 92 89 84 70 33 358 3 23 76 81 82 81 79 75 72 70 69
48 88 123 127 125 136 143 145 145 145 142 138 136 132 127 127 129 124 117 114 110 111 109 108 106 102 97 91 82 57 17 2 15 55 71 76 81 81 79 75 71 69 70
43 88 131 137 137 140 146 144 146 144 142 138 134 132 129 132 131 126 120 116 113 112 112 112 108 106 102 96 82 46 14 4 19 72 76 76 82 83 81 77 72 72 72
46 84 121 135 141 145 144 146 147 144 144 143 138 132 130 127 128 123 121 119 116 112 111 112 111 113 109 101 84 44 11 3 15 59 79 78 80 82 82 79 78 75 73
46 70 103 131 136 137 138 146 146 147 147 146 140 131 122 119 122 122 123 122 121 119 117 116 117 118 119 114 102 51 358 3 38 64 73 79 82 81 81 82 81 78 75
20 57 63 114 139 139 142 147 149 149 148 144 141 138 139 135 127 120 125 128 128 126 126 127 130 134 132 132 125 43 16 48 65 70 71 82 82 80 83 84 82 79 77
333 52 61 49 113 130 139 144 147 144 147 148 150 158 158 122 118 120 124 131 134 132 134 141 148 154 152 144 146 99 49 67 67 74 70 83 82 81 86 85 82 82 80
303 346 72 45 67 103 120 140 133 134 140 138 144 151 124 115 121 125 126 129 136 141 150 162 162 158 143 130 120 107 78 79 81 81 75 85 86 86 86 88 85 84 83
230 245 60 65 71 101 117 124 111 114 115 109 121 125 118 110 115 125 127 144 149 146 151 155 151 133 117 109 101 92 82 83 89 88 83 88 88 89 86 88 89 86 85
215 129 75 94 105 104 104 117 110 110 110 102 103 108 120 122 128 128 122 126 123 127 128 129 105 97 93 95 96 89 83 88 97 97 93 93 90 87 86 87 88 86 87
188 163 119 130 120 104 103 101 109 108 110 106 103 103 119 123 117 116 112 107 97 99 101 99 91 88 86 81 81 80 76 80 93 106 108 99 92 87 84 85 83 86 88
164 159 140 141 125 122 123 107 100 107 115 111 111 112 115 119 119 110 109 108 97 99 90 78 83 83 89 86 84 73 70 77 85 96 111 114 106 93 86 86 86 85 88
132 131 138 136 133 133 129 113 111 111 109 112 119 120 122 127 126 109 112 118 108 94 82 76 73 76 75 80 85 82 81 85 88 95 103 112 114 110 99 95 97 92 86
123 120 116 115 119 128 121 110 110 114 114 117 118 114 125 127 126 119 128 134 129 117 110 125 91 101 89 73 82 88 85 94 102 106 107 110 114 119 120 114 107 101 91
128 126 111 98 98 101 107 104 103 97 85 94 95 101 107 115 125 120 127 140 134 136 139 131 123 109 119 123 86 67 73 140 119 114 121 118 124 131 135 136 131 129 121
125 131 125 116 111 108 113 119 124 124 112 102 102 109 99 100 108 118 124 134 132 153 154 142 134 128 128 108 87 53 330 199 166 155 130 127 131 134 138 145 144 147 147
134 131 133 140 138 127 117 120 128 119 123 132 107 92 94 96 103 128 134 147 145 153 137 134 130 134 152 140 143 150 180 283 262 189 161 170 163 151 152 162 159 154 151
120 128 139 140 134 130 122 109 112 99 97 80 99 101 106 110 112 123 138 142 156 162 160 153 156 152 181 217 158 153 161 204 249 228 208 181 172 170 164 167 164 162 166
124 129 134 129 131 137 129 134 144 144 151 166 152 140 137 128 135 125 136 150 164 167 162 163 160 161 165 199 256 257 186 159 151 247 262 218 191 187 190 177 176 182 183
123 134 137 129 135 151 142 148 150 139 142 135 129 136 146 152 152 154 157 156 171 173 166 160 170 174 184 194 202 227 276 324 211 179 235 248 257 231 202 184 177 177 187
116 126 136 140 142 154 150 153 155 149 143 136 146 162 172 172 169 172 169 160 169 176 174 177 185 190 209 210 210 206 192 196 224 198 222 243 242 243 229 199 177 176 188
Height
1515 1515 1516 1517 1518 1520 1521 1522 1523 1524 1525 1526 1527 1528 1529 1530 1531 1531 1532 1532 1533 1534 1534 1535 1535 1536 1536 1537 1537 1538 1539 1540 1540 1541 1541 1541 1541 1542 1542 1542 1542 1543 1543
1515 1515 1516 1517 1518 1519 1521 1522 1523 1524 1525 1526 1527 1528 1529 1530 1531 1532 1532 1533 1534 1534 1535 1535 1536 1536 1537 1537 1538 1539 1540 1540 1541 1542 1542 1542 1543 1543 1543 1543 1544 1544 1544
1514 1515 1516 1517 1518 1519 1521 1522 1523 1524 1525 1526 1527 1528 1529 1530 1531 1532 1533 1533 1534 1534 1535 1536 1536 1537 1537 1538 1539 1540 1540 1541 1542 1543 1543 1543 1544 1544 1544 1544 1545 1545 1545
1514 1515 1516 1517 1518 1519 1520 1521 1523 1524 1525 1526 1527 1528 1529 1530 1531 1532 1533 1533 1534 1535 1536 1536 1537 1537 1538 1539 1539 1540 1541 1542 1543 1544 1544 1544 1545 1545 1545 1545 1545 1546 1546
1514 1514 1515 1516 1517 1519 1520 1521 1522 1524 1525 1526 1527 1528 1529 1530 1531 1532 1533 1534 1535 1535 1536 1537 1537 1538 1538 1539 1540 1541 1542 1543 1544 1545 1545 1545 1545 1546 1546 1546 1546 1546 1547
1514 1514 1515 1516 1517 1518 1519 1521 1522 1523 1524 1525 1527 1528 1529 1530 1531 1532 1533 1534 1535 1536 1536 1537 1537 1538 1539 1540 1541 1542 1543 1544 1545 1545 1545 1545 1546 1546 1546 1547 1547 1547 1547
1514 1514 1514 1515 1516 1517 1518 1520 1521 1522 1524 1525 1526 1528 1529 1530 1531 1532 1533 1534 1535 1536 1536 1537 1538 1538 1539 1540 1541 1542 1543 1544 1545 1545 1546 1546 1546 1547 1547 1547 1547 1547 1547
1513 1513 1514 1514 1515 1516 1517 1519 1520 1521 1523 1524 1526 1527 1528 1529 1530 1531 1532 1533 1534 1535 1536 1537 1538 1538 1539 1540 1541 1542 1543 1544 1545 1545 1546 1546 1546 1547 1547 1547 1547 1547 1547
1512 1512 1512 1513 1514 1515 1516 1517 1519 1520 1522 1523 1525 1526 1527 1528 1530 1531 1532 1533 1534 1535 1536 1536 1537 1538 1539 1540 1541 1542 1543 1544 1545 1545 1546 1546 1546 1547 1547 1547 1547 1547 1547
1511 1510 1511 1511 1512 1513 1514 1516 1517 1519 1521 1522 1524 1525 1526 1528 1529 1530 1531 1532 1533 1534 1535 1536 1537 1538 1539 1540 1541 1542 1543 1544 1545 1545 1546 1546 1546 1547 1547 1547 1547 1547 1548
1509 1509 1509 1510 1510 1511 1512 1514 1516 1518 1520 1521 1523 1524 1525 1527 1528 1529 1530 1531 1532 1533 1535 1536 1537 1538 1539 1540 1541 1542 1543 1544 1544 1545 1545 1546 1546 1547 1547 1547 1547 1547 1547
1508 1508 1508 1508 1508 1509 1510 1512 1514 1516 1518 1519 1521 1523 1524 1525 1527 1528 1529 1530 1531 1533 1534 1535 1536 1537 1538 1539 1541 1542 1543 1543 1544 1544 1545 1546 1546 1546 1547 1547 1547 1547 1547
1506 1506 1506 1506 1507 1507 1508 1510 1511 1514 1516 1517 1519 1521 1522 1524 1525 1527 1528 1529 1530 1532 1533 1534 1535 1536 1538 1539 1540 1541 1542 1543 1543 1544 1544 1545 1545 1546 1546 1546 1547 1547 1547
1504 1504 1504 1504 1505 1506 1507 1508 1509 1511 1513 1515 1517 1519 1520 1522 1523 1525 1527 1528 1529 1531 1532 1533 1534 1536 1537 1538 1539 1540 1541 1542 1542 1543 1544 1544 1545 1545 1545 1546 1546 1546 1546
1502 1502 1502 1502 1503 1504 1505 1506 1507 1509 1511 1514 1515 1517 1519 1520 1522 1524 1525 1527 1529 1530 1531 1533 1534 1535 1536 1537 1538 1539 1540 1541 1542 1542 1542 1543 1544 1544 1545 1545 1545 1545 1545
1500 1500 1501 1501 1501 1502 1503 1504 1506 1508 1510 1512 1514 1516 1517 1519 1521 1522 1524 1526 1527 1529 1530 1531 1532 1534 1535 1536 1537 1538 1539 1540 1540 1541 1541 1542 1542 1543 1544 1544 1544 1544 1544
1498 1499 1499 1499 1500 1501 1502 1503 1504 1506 1508 1511 1513 1514 1516 1517 1519 1521 1523 1524 1526 1527 1529 1530 1531 1532 1534 1535 1536 1537 1538 1538 1539 1539 1540 1540 1541 1542 1542 1543 1543 1543 1543
1496 1497 1497 1498 1498 1499 1500 1502 1503 1504 1506 1509 1511 1513 1514 1516 1518 1519 1521 1523 1524 1526 1527 1528 1529 1531 1532 1533 1534 1535 1536 1537 1537 1538 1538 1539 1539 1540 1541 1541 1541 1542 1542
1494 1495 1495 1496 1497 1498 1499 1500 1501 1503 1505 1507 1510 1511 1513 1514 1516 1518 1519 1521 1523 1524 1526 1527 1528 1529 1530 1531 1532 1534 1534 1535 1536 1536 1537 1537 1538 1538 1539 1539 1540 1540 1540
1492 1493 1494 1494 1495 1496 1497 1498 1500 1502 1504 1506 1508 1510 1512 1513 1515 1516 1518 1519 1521 1522 1524 1525 1526 1527 1528 1529 1530 1532 1533 1533 1534 1534 1535 1535 1536 1536 1537 1537 1538 1538 1538
1491 1492 1492 1493 1493 1494 1495 1496 1498 1500 1502 1504 1507 1508 1510 1511 1513 1515 1516 1517 1519 1520 1521 1523 1524 1525 1526 1527 1528 1529 1531 1531 1532 1532 1533 1533 1534 1534 1535 1535 1536 1536 1536
1489 1490 1491 1492 1492 1493 1494 1495 1497 1499 1501 1503 1504 1506 1508 1510 1511 1513 1514 1515 1516 1518 1519 1521 1522 1523 1524 1525 1527 1527 1528 1530 1529 1530 1531 1531 1531 1532 1532 1533 1533 1533 1533
1487 1488 1489 1490 1491 1492 1493 1494 1495 1498 1499 1501 1503 1504 1506 1508 1509 1511 1512 1513 1515 1516 1516 1517 1519 1521 1522 1523 1524 1526 1526 1526 1527 1527 1528 1529 1529 1529 1530 1530 1530 1530 1531
1487 1487 1489 1490 1490 1492 1492 1493 1494 1495 1497 1498 1501 1502 1504 1505 1507 1508 1510 1511 1513 1514 1514 1515 1517 1518 1519 1520 1522 1522 1524 1524 1525 1524 1525 1526 1526 1526 1527 1527 1527 1527 1528
1486 1487 1488 1488 1489 1491 1491 1492 1494 1494 1496 1497 1499 1500 1502 1503 1505 1506 1507 1508 1510 1512 1512 1513 1514 1516 1517 1518 1519 1519 1520 1521 1522 1522 1522 1522 1523 1523 1523 1524 1524 1524 1524
1485 1486 1486 1487 1488 1489 1490 1490 1491 1493 1494 1495 1497 1498 1500 1501 1502 1504 1505 1506 1508 1509 1510 1511 1512 1513 1514 1515 1516 1516 1517 1518 1518 1519 1519 1519 1519 1519 1520 1520 1520 1520 1520